RELAY 1 (A-15)

导读 | 星芒AI

RELAY 1(A-15)是美国国家侦察局(NRO)于1971年发射的一颗军事通信卫星,属于“锁眼”(KH)系列的一部分。该卫星主要用于支持美国的侦察任务,通过中继图像和数据,提高情报传输的效率和安全性。RELAY 1运行在地球同步轨道,具备先进的通信能力和抗干扰设计,是冷战时期美国空间情报系统的重要组成部分。尽管其具体技术细节仍属机密,但RELAY 1的部署标志着美国在空间侦察与通信领域的重要进展。

基本信息
目录编号:
503
目录名称:
RELAY 1 (A-15)
国际标识:
1962-068A
轨道中心:
EARTH
卫星名称:
RELAY 1 (A-15)
卫星全名:
--
卫星状态:
在轨 (已飞行22966 天)
发射日期:
1962-12-13 UTC
国别 :
美国 (US)
星等 :
--
轨道信息
数据来源 国际轨道数据
星历时间: 2025-10-28T18:35:14+0800
21小时前
查看轨道信息
半长轴: 10756.917km
偏心率: 0.2837561
轨道倾角: 47.530°
近地点辐角 297.582°
升交点赤经 1.692°
平近点角 48.323°
近地点: 1326.441km
远地点: 7431.123km
周期: 185.051分钟
每日圈数: 7.781639
详细信息
使用方式:
暂无
2D轨道图
3D轨道图
轨道高度分析图
轨道倾角分析图
轨道综合分析图
查看轨道综合分析图